P/2020 T3 ( PanSTARRS )

Japanese version
Home page
Updated on June 14, 2021

---------------------------------------------------------------------

* Profile

Discovery Date October 10, 2020
Magnitude 21.3 mag
Discoverer Pan-STARRS 1 telescope (Haleakala)

* Pictures

* Orbital Elements

Epoch 2021 Jan. 26.0 TT = JDT 2459240.5
T 2021 Jan. 20.47181 TT                                 Rudenko
q   1.4366106            (2000.0)            P               Q
n   0.14941177     Peri.  357.04296     +0.32411765     -0.93810599
a   3.5173278      Node    74.02059     +0.87053852     +0.24525085
e   0.5915619      Incl.    7.29584     +0.37028425     +0.24455914
P   6.60
From 155 observations 2020 Sept. 9-2021 Feb. 11, mean residual 0".6.

* Finding Charts

* Magnitudes Graph

        m1 =  8.5 + 5 log d + 30 log r(t - 100)  [   ,-13]  (             - 2021 Jan.  7)
        m1 = 10.5 + 5 log d + 20 log r(t + 150)  [-13,   ]  (2021 Jan.  7 -             )

---------------------------------------------------------------------

The orbital elements are published on M.P.E.C. 2021-L04.
The charts are made with StellaNavigator Ver.10 (AstroArts).
The magnitudes graphs are made with Comet for Windows.

---------------------------------------------------------------------

Copyright(C) Seiichi Yoshida (comet@aerith.net). All rights reserved.